Location: Unspecified
(56.5167°N, 0.0000°E)
Time: 12:27:54
(UTC+02:00)

Okean 3 - Visible Passes

Search period start: 08 May 2021 00:00
Search period end: 18 May 2021 00:00
Orbit: 575 x 601 km, 82.5° (Epoch: 08 May)

Date Brightness Start Highest point End Pass type
(mag) Time Alt. Az. Time Alt. Az. Time Alt. Az.
08 May 5.6 01:20:34 12° ESE 01:22:39 16° E 01:25:14 10° NE visible
08 May 3.4 02:57:05 28° SSW 02:59:18 81° WNW 03:03:35 10° N visible
08 May 5.7 04:34:47 10° W 04:37:17 15° NW 04:39:46 10° NNW visible
09 May 5.3 01:28:08 15° ESE 01:30:09 21° E 01:33:21 10° NE visible
09 May 3.7 03:04:39 25° SSW 03:07:01 60° WNW 03:11:15 10° N visible
09 May 5.9 04:43:36 10° WNW 04:45:12 12° NW 04:46:48 10° NNW visible
10 May 4.9 01:35:42 19° SE 01:37:41 27° E 01:41:18 10° NNE visible
10 May 4.2 03:12:12 21° SW 03:14:46 44° WNW 03:18:51 10° N visible
11 May 4.4 01:43:14 23° SE 01:45:16 36° E 01:49:10 10° NNE visible
11 May 4.6 03:19:45 16° SW 03:22:32 34° WNW 03:26:26 10° N visible
12 May 3.9 01:50:46 26° SSE 01:52:52 49° E 01:56:58 10° NNE visible
12 May 5.0 03:27:16 13° WSW 03:30:21 26° WNW 03:33:56 10° N visible
13 May 5.8 00:23:06 10° E 00:24:06 11° ENE 00:25:07 10° ENE visible
13 May 3.5 01:58:17 27° S 02:00:30 68° E 02:04:44 10° NNE visible
13 May 5.4 03:34:59 10° WSW 03:38:11 20° WNW 03:41:23 10° NNW visible
14 May 5.6 00:29:18 10° ESE 00:31:34 14° E 00:33:52 10° NE visible
14 May 3.4 02:05:48 26° SSW 02:08:10 89° WNW 02:12:26 10° NNE visible
14 May 5.7 03:43:24 10° W 03:46:04 16° WNW 03:48:44 10° NNW visible
15 May 5.3 00:36:48 13° ESE 00:39:04 19° E 00:42:03 10° NE visible
15 May 3.6 02:13:17 23° SSW 02:15:52 66° WNW 02:20:05 10° N visible
15 May 5.9 03:52:05 10° W 03:53:58 13° NW 03:55:53 10° NNW visible
16 May 4.9 00:44:16 16° SE 00:46:35 25° E 00:50:03 10° NNE visible
16 May 4.1 02:20:46 19° SW 02:23:36 48° WNW 02:27:42 10° N visible
17 May 4.5 00:51:45 19° SE 00:54:09 33° E 00:57:57 10° NNE visible
17 May 4.6 02:28:14 15° SW 02:31:21 36° WNW 02:35:17 10° N visible
